765  
ASUS44 KSJT 241710  
RWRSJT  
WEST CENTRAL TEXAS REGIONAL WEATHER ROUNDUP  
NATIONAL WEATHER SERVICE SAN ANGELO TX  
1200 PM CDT SUN SEP 24 2017  
 
NOTE: "FAIR" INDICATES FEW OR NO CLOUDS BELOW 12,000 FEET WITH NO  
SIGNIFICANT WEATHER AND/OR S TO VISIBILITY
.  
 
TXZ049-054-064>066-071>073-076>078-098-099-113-114-127-128-139-140-  
154-155-168>170-241800   
..LOCATIONS ACROSS WEST CENTRAL TEXAS
 
 
 
CITY SKY/WX TMP DP RH WIND PRES REMARKS
 
SAN ANGELO PTSUNNY 80 61 52 S10 29.91S  
ABILENE LGT RAIN 75 69 81 S12 29.93S  
DYESS AFB CLOUDY 76 68 76 S12 29.92S  
JUNCTION MOSUNNY 84 63 49 SE16G23 29.92F  
SWEETWATER CLOUDY 73 69 88 SE13 29.97S  
BROWNWOOD NOT AVBL  
COLEMAN CLOUDY 82 65 56 SE17 29.93F  
SONORA CLOUDY 79 64 61 S15 29.96S  
OZONA CLOUDY 73 64 73 S15G22 29.94F  
BRADY NOT AVBL  

 
 
TEXAS PANHANDLE/OKLAHOMA PANHANDLE  
 
CITY SKY/WX TMP DP RH WIND PRES REMARKS
 
AMARILLO NOT AVBL  
BORGER LGT RAIN 69 65 86 SE13G24 29.93S  
CANADIAN PTSUNNY 71 67 87 S12G21 29.91F  
DALHART CLOUDY 67 64 90 S13 29.93S  
DUMAS CLOUDY 66 63 89 SE12 29.93S  
GUYMON NOT AVBL  
HEREFORD DRIZZLE 68 66 95 S13G20 29.94S  
PAMPA CLOUDY 73 65 76 S18G26 29.94F  
PERRYTON CLOUDY 71 66 86 S15 29.92S  

 
 
SOUTHERN PANHANDLE/SOUTH PLAINS/ROLLING PLAINS  
 
CITY SKY/WX TMP DP RH WIND PRES REMARKS
 
LUBBOCK CLOUDY 69 66 90 S14 29.93S  
SNYDER CLOUDY 72 67 86 SE12 29.94F  
CHILDRESS LGT RAIN 73 70 90 S13 29.92S  
SEMINOLE CLOUDY 73 69 88 S10 29.93F  

 
 
PERMIAN BASIN  
 
CITY SKY/WX TMP DP RH WIND PRES REMARKS
 
MIDLAND CLOUDY 77 66 68 S17 29.90S  
ODESSA CLOUDY 75 67 76 S16 29.91S  
WINK MOSUNNY 79 68 69 S13 29.86F  

 
 
FAR WEST/SOUTHWEST MOUNTAINS/TRANS PECOS  
 
CITY SKY/WX TMP DP RH WIND PRES REMARKS
 
ALPINE CLOUDY 77 61 58 S8 30.01F  
DRYDEN N/A 75 71 87 SE16 29.87F  
EL PASO MOSUNNY 79 45 29 VRB3 29.91S  
FORT STOCKTON NOT AVBL  
GUADALUPE PASS NOT AVBL  
MARFA NOT AVBL  
PECOS SUNNY 80 68 67 SE8 29.86S  

 
 
DALLAS/FORT WORTH METROPLEX  
 
CITY SKY/WX TMP DP RH WIND PRES REMARKS
 
DFW AIRPORT PTSUNNY 85 69 58 SE15G22 29.94S  
FTW MEACHAM MOSUNNY 85 68 56 SE10 29.93F  
DAL-EXECUTIVE MOSUNNY 84 69 60 VRB6 29.94F  
GRAND PRAIRIE MOSUNNY 82 66 57 S10G20 29.97S  
ADDISON PTSUNNY 82 68 61 MISG 29.96S  
MESQUITE MOSUNNY 84 66 54 SE9 29.95F  
LANCASTER PTSUNNY 83 67 58 S6 29.95F  

 
 
NORTH CENTRAL TEXAS  
 
CITY SKY/WX TMP DP RH WIND PRES REMARKS
 
SHRMAN/DENISON MOSUNNY 86 67 53 S13 29.97S  
GAINESVILLE MOSUNNY 84 66 54 S13G20 29.97F  
BRIDGEPORT SUNNY 85 64 50 S10 29.95F  
DENTON SUNNY 84 69 60 SE10 29.94F  
WAXAHACHIE MOSUNNY 84 68 57 SE9 29.96S  
GRANBURY PTSUNNY 87 65 49 SE8G16 29.94F  

 
 
WESTERN NORTH TEXAS  
 
CITY SKY/WX TMP DP RH WIND PRES REMARKS
 
WICHITA FALLS PTSUNNY 85 65 51 S13G20 29.90F  
VERNON CLOUDY 82 62 50 S15 29.92R  
BRECKENRIDGE MOSUNNY 84 65 52 S10 29.92F  
COMANCHE CLOUDY 84 67 56 S10G16 29.94F  

 
 
CENTRAL AND SOUTH CENTRAL TEXAS  
 
CITY SKY/WX TMP DP RH WIND PRES REMARKS
 
AUSTIN/BERGSTM MOSUNNY 87 72 60 SE14 29.90F  
WACO PTSUNNY 86 69 56 S10 29.93F  
HILLSBORO MOSUNNY 84 70 61 SE12 29.94F  
TEMPLE MOSUNNY 84 69 60 S12 29.93F  
KILLEEN-GRAY PTSUNNY 83 68 59 SE15 29.92S  
FORT HOOD MOSUNNY 83 70 63 SE13 29.90S  
GEORGETOWN MOSUNNY 83 71 67 VRB6 29.94S  
LAGO VISTA PTSUNNY 84 71 64 SE9 29.94F  
SAN MARCOS PTSUNNY 86 72 62 S13G21 29.90F  
NEW BRAUNFELS PTSUNNY 86 72 62 S9 29.89F  
RANDOLPH AFB MOSUNNY 86 71 60 SE12G17 29.90F  
SAN ANTONIO PTSUNNY 87 69 54 SE15 29.90F  
STINSON PTSUNNY 86 72 62 SE8 29.87F  
PLEASANTON NOT AVBL  
LA GRANGE PTSUNNY 86 75 68 SE6 29.89F  
GIDDINGS MOSUNNY 83 71 65 SE5 29.93S  

 
 
EAST TEXAS  
 
CITY SKY/WX TMP DP RH WIND PRES REMARKS
 
PARIS MOSUNNY 86 70 58 S9 29.97F  
CLARKSVILLE NOT AVBL  
TYLER MOSUNNY 86 67 52 VRB7 29.96F  
LONGVIEW MOSUNNY 88 68 51 VRB7 29.95F  
PALESTINE MOSUNNY 85 72 64 SE7 29.96F  
NACOGDOCHES SUNNY 85 69 58 SE5 29.96F  

 
 
TEXAS HILL COUNTRY AND EDWARDS PLATEAU  
 
CITY SKY/WX TMP DP RH WIND PRES REMARKS
 
LLANO N/A N/A N/A N/A E9 29.94F  
HORSESHOE BAY FAIR 87 69 55 S10 29.92F  
KERRVILLE PTSUNNY 82 69 64 S12 29.93F  
FREDERICKSBRG CLOUDY 79 65 62 SW12 29.94S  
ROCKSPRINGS NOT AVBL  
HONDO MOSUNNY 86 68 54 SE7G17 29.90F  
UVALDE PTSUNNY 83 68 60 SE13 29.89F  
DEL RIO CLOUDY 79 72 79 SE13 29.86F  

 
 
SOUTHEAST TEXAS  
 
CITY SKY/WX TMP DP RH WIND PRES REMARKS
 
COLLEGE STN MOSUNNY 85 71 63 SE10 29.93S  
CALDWELL PTSUNNY 85 71 63 SE9 29.93F  
CROCKETT PTSUNNY 84 72 65 SE5 29.97F  
BRENHAM PTSUNNY 87 72 61 SE7 29.93S  
HUNTSVILLE MOSUNNY 86 68 54 VRB5 29.94S  
CONROE PTSUNNY 86 73 65 SE9 29.93F  
HOUSTON BUSH MOSUNNY 86 73 65 SE10 29.91F  
HOUSTON HOBBY PTSUNNY 90 73 57 E9 29.90F  
PERLAND MOSUNNY 90 70 51 SE10 29.92S  
WHARTON SUNNY 87 70 56 E8 29.90S  

 
 
THE UPPER TEXAS COAST  
 
CITY SKY/WX TMP DP RH WIND PRES REMARKS
 
ORANGE PTSUNNY 86 73 65 E7 29.94S  
PORT ARTHUR PTSUNNY 88 72 58 E9 29.92S  
GALVESTON MOSUNNY 89 75 63 SE13 29.91F  
ANGLETON MOSUNNY 89 72 56 SE9 29.90S  
BAY CITY MOSUNNY 89 72 57 SE12 29.89S  

 
 
TEXAS COASTAL BEND, RIO GRANDE PLAINS DEEP SOUTH TEXAS  
 
CITY SKY/WX TMP DP RH WIND PRES REMARKS
 
VICTORIA PTSUNNY 86 74 67 MISG 29.87F  
BEEVILLE PTSUNNY 88 66 48 SE12G17 29.86F  
ROCKPORT SUNNY 87 74 64 SE13 29.86S  
PORT ARANSAS NOT AVBL  
PORT LAVACA MOSUNNY 87 74 66 SE18 29.87F  
CORPUS CHRISTI MOSUNNY 91 72 53 SE13 29.85S  
KINGSVILLE NAS MOSUNNY 91 73 55 SE10G20 29.83F  
COTULLA MOSUNNY 88 68 51 SE10 29.85F  
LAREDO CLOUDY 89 69 51 S12 29.84S  
BROWNSVILLE MOSUNNY 90 74 59 SE14 29.83F  
PORT ISABEL MOSUNNY 89 76 65 SE17G25 29.82F  
HEBBRONVILLE MOSUNNY 89 66 46 SE9G17 29.85S  
MCALLEN PTSUNNY 89 73 59 S13 29.83S  
WESLACO MOSUNNY 92 68 44 S13G18 29.81F  
FALFURRIAS MOSUNNY -38 32 100 S12 29.83S WCI -64  
EDINBURG MOSUNNY 92 67 43 S12 29.82F  

 
 
 
CLICK HERE TO GO TO PREVIOUS BULLETINS.

The Nexlab TX Page Main Text Page